[Iaude] MPEC T76: 2016 TO11 [a=2.07,e=0.55,i=4.4,H=27.1]

mpec at si.edu mpec at si.edu
Sat Oct 8 10:53:35 EDT 2016


M.P.E.C. 2016-T76                                Issued 2016 Oct. 8, 14:49 UT
 
     The Minor Planet Electronic Circulars contain information on unusual
         minor planets and routine data on comets.  They are published
    on behalf of Division F of the International Astronomical Union by the
          Minor Planet Center, Smithsonian Astrophysical Observatory,
                          Cambridge, MA 02138, U.S.A.

             Prepared using the Tamkin Foundation Computer Network

                              MPC at CFA.HARVARD.EDU
            URL http://www.minorplanetcenter.net/    ISSN 1523-6714


                                   2016 TO11
 
Observations:
     K16T11O* C2016 10 06.24985 22 57 00.00 +02 12 33.8          21.1 VqET076G96
     K16T11O  C2016 10 06.25112 22 57 00.24 +02 12 30.0          20.8 VqET076G96
     K16T11O  C2016 10 06.25234 22 57 00.45 +02 12 26.6          21.2 VqET076G96
     K16T11O  C2016 10 06.25367 22 57 00.63 +02 12 22.9          21.0 VqET076G96
     K16T11O KC2016 10 06.34228 22 57 18.00 +02 08 07.8          21.7 RoET076291
     K16T11O KC2016 10 06.34404 22 57 18.39 +02 08 02.5          21.0 RoET076291
     K16T11O KC2016 10 06.34580 22 57 18.77 +02 07 57.5          20.7 RoET076291
     K16T11O HC2016 10 07.13000 23 01 35.01 +01 24 17.1          20.8 VqET076H21
     K16T11O HC2016 10 07.14824 23 01 39.94 +01 23 09.0                qET076H21
     K16T11O  C2016 10 07.19018 23 01 57.17 +01 20 56.0          20.8 VqET076G96
     K16T11O  C2016 10 07.19126 23 01 57.50 +01 20 51.9          20.4 VqET076G96
     K16T11O  C2016 10 07.19231 23 01 57.69 +01 20 48.2          20.5 VqET076G96
     K16T11O  C2016 10 07.19339 23 01 58.06 +01 20 43.7          21.2 VqET076G96
     K16T11O KC2016 10 07.88898 23 06 43.78 +00 29 28.0          20.2 RqET076104
     K16T11O KC2016 10 07.89358 23 06 45.55 +00 29 05.4          20.5 RqET076104
     K16T11O KC2016 10 07.89818 23 06 47.31 +00 28 43.1          20.4 RqET076104
     K16T11O  C2016 10 08.12012 23 08 50.03 +00 10 23.9          21.4 VqET076I52
     K16T11O  C2016 10 08.12637 23 08 52.76 +00 09 48.3          20.5 VqET076I52
     K16T11O  C2016 10 08.12813 23 08 53.42 +00 09 40.3          21.0 VqET076I52
 
Observer details:
104 San Marcello Pistoiese.  Observers P. Bacci, M. Maestripieri.  Measurers
    P. Bacci, L. Tesi, G. Fagioli.  0.60-m f/4 reflector + CCD.
291 LPL/Spacewatch II.  Observer J. V. Scotti.  1.8-m f/2.7 reflector + CCD.
G96 Mt. Lemmon Survey.  Observers R. G. Matheny, G. J. Leonard.  Measurers
    E. J. Christensen, D. C. Fuls, A. R. Gibbs, A. D. Grauer, J. A. Johnson,
    R. A. Kowalski, S. M. Larson, G. J. Leonard, R. G. Matheny, R. L. Seaman,
    F. C. Shelly.  1.5-m reflector + 10K CCD.
H21 Astronomical Research Observatory, Westfield.  Observer R. Holmes.
    Measurers L. Buzzi, T. Linder, S. Foglia, T. Vorobjov.  0.61-m f/4.0
    astrograph + CCD.
I52 Steward Observatory, Mt. Lemmon Station.  Observer D. C. Fuls.  Measurers
    E. J. Christensen, D. C. Fuls, A. R. Gibbs, A. D. Grauer, J. A. Johnson,
    R. A. Kowalski, S. M. Larson, G. J. Leonard, R. G. Matheny, R. L. Seaman,
    F. C. Shelly.  1.0-m reflector + CCD.
 
Orbital elements:
2016 TO11                                                Earth MOID = 0.0053 AU
Epoch 2016 July 31.0 TT = JDT 2457600.5                 MPC
M 326.72485              (2000.0)            P               Q
n   0.33012952     Peri.  218.48700     +0.57892098     -0.81510774
a   2.0733843      Node   196.17367     +0.76568524     +0.55239391
e   0.5479420      Incl.    4.36702     +0.28031520     +0.17452890
P   2.99           H   27.1           G   0.15           U   5
Residuals in seconds of arc
161006 G96  0.1-  0.0     161007 H21  0.6+  0.4+    161007 104  0.3-  0.6-
161006 G96  0.0   0.2-    161007 H21  0.6+  0.8+    161007 104  0.2-  0.0
161006 G96  0.2-  0.2-    161007 G96  0.1-  0.1+    161008 I52  0.1+  0.7+
161006 G96  1.1-  0.1-    161007 G96  0.4+  0.1+    161008 I52  0.5+  1.1-
161006 291  0.3-  0.1-    161007 G96  1.0-  0.4+    161008 I52  0.9-  0.5+
161006 291  0.0   0.3-    161007 G96  0.2+  0.0
161006 291  0.2+  0.1-    161007 104  0.5-  0.7-

Ephemeris:
2016 TO11                a,e,i = 2.07, 0.55, 4                   q = 0.9373
Date    TT    R. A. (2000) Decl.     Delta      r     Elong.  Phase     V
2016 09 08    22 43 24.4 +05 50 04   0.2129  1.2159   167.1    10.7    24.8
...
2016 09 23    22 41 09.7 +05 38 40   0.1148  1.1116   159.4    18.5    23.6
...
2016 10 01    22 44 54.3 +04 32 35   0.06746 1.0622   153.9    24.5    22.5
...
2016 10 07    23 00 47.0 +01 34 58   0.03335 1.0290   152.2    27.0    21.0
2016 10 08    23 07 37.4 +00 23 49   0.02779 1.0239   152.7    26.6    20.6
2016 10 09    23 17 58.4 -01 22 20   0.02228 1.0189   153.8    25.7    20.1
...
2016 10 15    08 55 50.5 -20 14 24   0.01385 0.9913    64.8   114.4    22.2
...
2016 10 23    10 08 46.2 -10 14 00   0.05801 0.9623    54.5   122.7    25.9
...
2016 11 07    10 29 33.7 -08 38 27   0.1419  0.9366    63.6   108.6    26.8

A. U. Tomatic                (C) Copyright 2016 MPC           M.P.E.C. 2016-T76




More information about the Iaude mailing list